FW2185 Weather Reports


time (UTC)temp
F
wind
direction
speed
knots
gust
knots
rain 1hr
in
rain 24hr
in
rain mn
in
humidity
%
barometer
mb
20260503181211 57 217 0.9 5.2 0.00 0.00 0.00 82 1009.3
20260503180211 57 228 1.7 6.1 0.00 0.00 0.00 83 1009.3
20260503175213 58 200 1.7 6.1 0.00 0.00 0.00 80 1009.3
20260503174209 57 203 0.9 6.1 0.00 0.00 0.00 83 1009.4
20260503173211 58 123 0.9 4.3 0.00 0.00 0.00 84 1009.2
20260503172157 56 207 0.9 3.5 0.00 0.00 0.00 86 1009.4
20260503171143 56 203 0.9 3.5 0.00 0.00 0.00 86 1009.2
20260503170138 55 217 0.0 4.3 0.00 0.00 0.00 88 1009.0
20260503150926 50 115 0.0 1.7 0.00 0.00 0.00 96 1008.5
20260503130744 49 331 0.0 2.6 0.00 0.00 0.00 98 1006.7
20260503120201 49 73 0.0 1.7 0.00 0.00 0.00 98 1006.7
20260503110610 49 218 0.0 0.9 0.00 0.00 0.00 96 1006.6
20260503090344 49 205 0.0 2.6 0.00 0.00 0.00 97 1007.1
20260503081243 49 225 0.0 0.9 0.00 0.00 0.00 98 1007.6
20260503080238 49 14 0.0 3.5 0.00 0.00 0.00 98 1007.5
20260503072156 49 119 0.0 0.9 0.00 0.00 0.00 98 1007.6
20260503071634 49 234 0.0 4.3 0.00 0.00 0.00 98 1007.6
20260503070123 49 109 0.0 1.7 0.00 0.00 0.00 98 1007.5
20260503055039 49 193 0.0 1.7 0.00 0.00 0.00 99 1008.1
20260503054016 49 217 0.9 3.5 0.00 0.00 0.00 99 1008.1
20260503052940 49 65 0.0 3.5 0.00 0.00 0.00 99 1008.0
20260503051938 49 178 0.9 4.3 0.00 0.00 0.00 99 1008.1
20260503050939 49 202 0.0 1.7 0.00 0.00 0.00 99 1008.0
20260503045929 49 180 0.0 1.7 0.00 0.00 0.00 99 1008.1
20260503044920 49 230 0.9 3.5 0.00 0.00 0.00 99 1008.2
20260503044402 49 61 0.0 3.5 0.00 0.00 0.00 99 1008.2
20260503042904 49 99 0.0 3.5 0.00 0.00 0.00 99 1008.1
20260503041857 49 206 0.9 5.2 0.00 0.00 0.00 98 1008.0
20260503040851 49 77 0.0 1.7 0.00 0.00 0.00 98 1007.9
20260503040349 49 163 0.9 4.3 0.00 0.00 0.00 98 1007.8
20260503035349 49 247 0.0 4.3 0.00 0.00 0.00 98 1007.8
20260503033840 49 74 0.0 4.3 0.00 0.00 0.00 98 1007.8
20260503033344 50 200 0.9 4.3 0.00 0.00 0.00 97 1007.6
20260503031823 50 215 0.9 2.6 0.00 0.00 0.00 97 1007.6
20260503030759 50 246 0.9 4.3 0.00 0.00 0.00 97 1007.5
20260503025754 50 34 0.9 8.7 0.00 0.00 0.00 96 1007.4
20260503024753 50 142 0.0 2.6 0.00 0.00 0.00 96 1007.5
20260503023750 50 91 0.0 3.5 0.00 0.00 0.00 95 1007.4
20260503022749 50 34 0.9 6.1 0.00 0.00 0.00 95 1007.4
20260503022249 51 63 0.9 4.3 0.00 0.00 0.00 95 1007.5
20260503020750 51 111 0.0 5.2 0.00 0.00 0.00 95 1007.6
20260503020243 51 200 0.0 3.5 0.00 0.00 0.00 94 1007.7
20260503014738 51 221 0.0 2.6 0.00 0.00 0.00 94 1007.7
20260503013738 51 9 0.0 2.6 0.00 0.00 0.00 94 1007.8
20260503012736 51 346 0.9 5.2 0.00 0.00 0.00 94 1007.8
20260503011731 52 48 0.0 4.3 0.00 0.00 0.00 93 1007.9
20260503010730 52 338 0.0 2.6 0.00 0.00 0.00 93 1007.9
20260503010214 52 188 1.7 4.3 0.00 0.00 0.00 92 1008.0
20260503004708 52 291 0.9 3.5 0.00 0.00 0.00 91 1007.9
20260503003640 52 92 0.9 3.5 0.00 0.00 0.00 92 1008.0
20260503002642 53 302 0.9 7.8 0.00 0.00 0.00 91 1008.0
20260503001640 53 199 0.9 5.2 0.00 0.00 0.00 90 1008.1
20260503000636 53 183 0.9 3.5 0.00 0.00 0.00 90 1008.1
20260502235632 53 97 0.9 6.1 0.00 0.00 0.00 89 1008.1
20260502234633 54 232 0.0 1.7 0.00 0.00 0.00 89 1008.3
20260502233633 54 355 0.9 5.2 0.00 0.00 0.00 89 1008.3
20260502232618 55 154 0.9 4.3 0.00 0.00 0.00 88 1008.5
20260502231618 55 248 0.9 4.3 0.00 0.00 0.00 86 1008.6
20260502230612 55 130 0.9 5.2 0.00 0.00 0.00 86 1008.7
20260502225608 56 218 0.9 5.2 0.00 0.00 0.00 86 1008.9
20260502224607 56 263 0.9 5.2 0.00 0.00 0.00 86 1008.9
20260502223559 57 280 0.9 3.5 0.00 0.00 0.00 84 1009.1
20260502222556 57 68 0.9 3.5 0.00 0.00 0.00 84 1009.1
20260502221544 58 16 0.9 4.3 0.00 0.00 0.00 82 1009.2
20260502221047 57 191 0.9 6.1 0.00 0.00 0.00 85 1009.3
20260502215543 57 124 0.0 1.7 0.00 0.00 0.00 84 1009.4
20260502215022 57 78 0.9 4.3 0.00 0.00 0.00 85 1009.4
20260502213512 57 223 0.9 3.5 0.00 0.00 0.00 83 1009.5
20260502212501 57 216 0.9 4.3 0.00 0.00 0.00 85 1009.5
20260502211952 56 103 0.9 2.6 0.00 0.00 0.00 88 1009.5
20260502205945 54 148 0.9 5.2 0.00 0.00 0.00 91 1009.6
20260502204947 55 209 0.0 3.5 0.00 0.00 0.00 91 1009.7
20260502203937 55 92 0.9 2.6 0.00 0.00 0.00 91 1009.7
20260502202432 55 66 0.0 0.9 0.00 0.00 0.00 92 1009.8
20260502201431 54 136 0.0 1.7 0.00 0.00 0.00 93 1010.0
20260502200417 54 230 0.9 3.5 0.00 0.00 0.00 94 1009.9
20260502195408 54 221 0.0 2.6 0.00 0.00 0.00 95 1010.0
20260502193350 54 163 0.0 2.6 0.00 0.00 0.00 96 1009.9
20260502192348 53 9 0.9 4.3 0.00 0.00 0.00 95 1009.8
20260502191348 54 208 0.9 5.2 0.00 0.00 0.00 95 1010.0
20260502190348 54 229 0.9 5.2 0.00 0.00 0.00 95 1009.9
20260502185348 54 208 0.9 3.5 0.00 0.00 0.00 94 1009.9
20260502184339 54 238 0.9 4.3 0.00 0.00 0.00 93 1009.9
20260502183336 55 192 0.0 1.7 0.00 0.00 0.00 94 1009.9
20260502182335 54 227 0.9 5.2 0.00 0.00 0.00 93 1009.9